Location: Guferjoch
(46.7462°N, 8.4506°E)
Time: 13:22:01
(UTC+00:00)

Cosmos 1241 Rocket - Pass Details

Date: 14 July 2020
Orbit: 935 x 1013 km, 65.8° (Epoch: 06 August)

Event Time Altitude Azimuth Distance (km) Brightness Sun altitude
Rises 01:23:51 0° 323° (NW) 3,685 7.9 -17.1°
Reaches altitude 10° 01:26:25 10° 321° (NW) 2,745 7.1 -16.9°
Maximum altitude 01:32:48 68° 240° (WSW) 1,066 4.5 -16.4°
Drops below altitude 10° 01:39:16 10° 158° (SSE) 2,774 6.5 -15.8°
Enters shadow 01:41:09 - 157° (SSE) 3,459 7.0 -15.7°
